Jefferson, NC

12:59 PM EDT on August 19, 2019 (GMT -0400)
Ashe County

Weather History for KGEV - June, 2019

Change the Weather History Date:

Friday, June 14, 2019

  Actual Average Record
Temperature  
Mean Temperature 59 °F -  
Max Temperature 70 °F 77 °F 89 °F (2005)
Min Temperature 48 °F 53 °F 34 °F (1985)
Degree Days  
Heating Degree Days 6    
Growing Degree Days 9 (Base 50)    
Moisture  
Dew Point 38 °F    
Average Humidity 49    
Maximum Humidity 63    
Minimum Humidity 26    
Precipitation  
Precipitation 0.00 in - - ()
Sea Level Pressure  
Sea Level Pressure 30.19 in    
Wind  
Wind Speed 9 mph (NW)    
Max Wind Speed 16 mph    
Max Gust Speed 25 mph    
Visibility 10 miles    
Events      
Averages and records for this station are not official NWS values.
T = Trace of Precipitation, MM = Missing Value Source: NWS Daily Summary

Daily Weather History Graph

Daily Weather History Graph

Search for Another Location

Airport or City:

Astronomy

Jun. 14, 2019 Rise Set
Actual Time 6:07 AM EDT 8:44 PM EDT
Civil Twilight 5:36 AM EDT 9:15 PM EDT
Nautical Twilight 4:58 AM EDT 9:53 PM EDT
Astronomical Twilight 4:16 AM EDT 10:35 PM EDT
Moon 6:09 PM EDT (6/14) 4:18 AM EDT (6/14)
Length of Visible Light 15h 38m
Length of Day
14h 37m
Waxing Gibbous, 92% of the Moon is Illuminated
Jun 14
Waxing Gibbous
Jun 17
Full
Jun 25
Last Quarter
Jul 2
New
Jul 9
First Quarter

Hourly Weather History & Observations

Time (EDT) Temp. Dew Point Humidity Pressure Visibility Wind Dir Wind Speed Gust Speed Precip Events Conditions
12:05 AM 54.3 °F 40.1 °F 59% 30.11 in 10.0 mi WNW 9.2 mph - N/A   Mostly Cloudy
12:25 AM 54.0 °F 39.4 °F 58% 30.11 in 10.0 mi NW 6.9 mph 10.4 mph N/A   Scattered Clouds
12:45 AM 54.0 °F 38.1 °F 55% 30.11 in 10.0 mi WNW 13.8 mph 21.9 mph N/A   Scattered Clouds
1:05 AM 53.2 °F 38.3 °F 57% 30.11 in 10.0 mi West 8.1 mph 21.9 mph N/A   Clear
1:25 AM 53.4 °F 38.1 °F 56% 30.11 in 10.0 mi WNW 10.4 mph 16.1 mph N/A   Scattered Clouds
1:45 AM 52.9 °F 38.3 °F 58% 30.11 in 10.0 mi West 8.1 mph 16.1 mph N/A   Scattered Clouds
2:05 AM 52.2 °F 38.7 °F 60% 30.11 in 10.0 mi WNW 5.8 mph 16.1 mph N/A   Scattered Clouds
2:25 AM 51.8 °F 38.7 °F 61% 30.11 in 10.0 mi WNW 9.2 mph - N/A   Scattered Clouds
2:45 AM 51.4 °F 38.7 °F 62% 30.11 in 10.0 mi NW 12.7 mph 19.6 mph N/A   Clear
3:05 AM 50.9 °F 37.9 °F 61% 30.11 in 10.0 mi NW 13.8 mph 19.6 mph N/A   Clear
3:25 AM 50.5 °F 36.9 °F 59% 30.11 in 10.0 mi WNW 9.2 mph 17.3 mph N/A   Clear
3:45 AM 50.4 °F 35.8 °F 57% 30.12 in 10.0 mi NW 5.8 mph - N/A   Clear
4:05 AM 50.2 °F 35.2 °F 57% 30.12 in 10.0 mi NW 12.7 mph 18.4 mph N/A   Clear
4:25 AM 50.0 °F 35.6 °F 58% 30.13 in 10.0 mi NW 9.2 mph 20.7 mph N/A   Clear
4:45 AM 49.5 °F 35.6 °F 59% 30.13 in 10.0 mi NW 11.5 mph 20.7 mph N/A   Clear
5:05 AM 49.1 °F 35.8 °F 60% 30.14 in 10.0 mi NW 6.9 mph - N/A   Clear
5:25 AM 48.9 °F 35.8 °F 61% 30.14 in 10.0 mi NW 9.2 mph 23.0 mph N/A   Clear
5:45 AM 49.1 °F 35.8 °F 60% 30.15 in 10.0 mi NNW 9.2 mph 20.7 mph N/A   Clear
6:05 AM 48.4 °F 36.1 °F 63% 30.15 in 10.0 mi NW 11.5 mph 16.1 mph N/A   Clear
6:25 AM 49.1 °F 36.5 °F 62% 30.15 in 10.0 mi NW 15.0 mph 24.2 mph N/A   Clear
6:45 AM 49.3 °F 36.7 °F 62% 30.16 in 10.0 mi NW 12.7 mph 23.0 mph N/A   Clear
7:05 AM 49.6 °F 36.9 °F 61% 30.16 in 10.0 mi NW 16.1 mph 24.2 mph N/A   Clear
7:25 AM 49.6 °F 37.4 °F 63% 30.16 in 10.0 mi NW 13.8 mph 20.7 mph N/A   Clear
7:45 AM 50.4 °F 37.2 °F 61% 30.18 in 10.0 mi NW 13.8 mph 25.3 mph N/A   Clear
8:05 AM 51.1 °F 37.8 °F 60% 30.20 in 10.0 mi NW 11.5 mph 18.4 mph N/A   Clear
8:25 AM 51.3 °F 38.5 °F 62% 30.21 in 10.0 mi NNW 11.5 mph 18.4 mph N/A   Clear
8:45 AM 51.8 °F 38.8 °F 61% 30.22 in 10.0 mi NW 13.8 mph 24.2 mph N/A   Clear
9:25 AM 53.2 °F 38.5 °F 57% 30.24 in 10.0 mi NNW 9.2 mph 21.9 mph N/A   Clear
9:45 AM 53.8 °F 37.2 °F 54% 30.24 in 10.0 mi NW 11.5 mph 19.6 mph N/A   Clear
10:25 AM 55.8 °F 37.9 °F 51% 30.25 in 10.0 mi North 12.7 mph 16.1 mph N/A   Clear
10:45 AM 56.8 °F 35.6 °F 45% 30.25 in 10.0 mi NNW 12.7 mph 17.3 mph N/A   Clear
11:05 AM 57.6 °F 36.9 °F 46% 30.25 in 10.0 mi NW 6.9 mph 17.3 mph N/A   Clear
11:25 AM 58.5 °F 36.0 °F 43% 30.25 in 10.0 mi NNW 10.4 mph 16.1 mph N/A   Clear
11:45 AM 59.7 °F 36.3 °F 42% 30.26 in 10.0 mi NNW 11.5 mph 17.3 mph N/A   Clear
12:05 PM 60.1 °F 34.0 °F 38% 30.25 in 10.0 mi NNW 12.7 mph 19.6 mph N/A   Clear
12:25 PM 61.2 °F 35.6 °F 39% 30.25 in 10.0 mi NNW 15.0 mph 20.7 mph N/A   Clear
12:45 PM 62.1 °F 33.8 °F 35% 30.25 in 10.0 mi NW 13.8 mph 23.0 mph N/A   Clear
1:05 PM 62.2 °F 34.3 °F 35% 30.25 in 10.0 mi NW 11.5 mph 18.4 mph N/A   Clear
1:25 PM 63.0 °F 35.2 °F 36% 30.25 in 10.0 mi NNW 6.9 mph - N/A   Clear
1:45 PM 64.4 °F 34.5 °F 33% 30.25 in 10.0 mi WNW 9.2 mph - N/A   Clear
2:05 PM 64.6 °F 33.4 °F 31% 30.24 in 10.0 mi NNW 9.2 mph - N/A   Clear
2:25 PM 65.8 °F 37.2 °F 35% 30.24 in 10.0 mi NW 5.8 mph - N/A   Clear
2:45 PM 66.2 °F 37.4 °F 35% 30.23 in 10.0 mi WNW 3.5 mph - N/A   Clear
3:05 PM 66.7 °F 37.4 °F 34% 30.23 in 10.0 mi West 9.2 mph - N/A   Clear
3:25 PM 67.8 °F 36.7 °F 32% 30.23 in 10.0 mi SW 4.6 mph - N/A   Clear
3:45 PM 68.5 °F 37.0 °F 31% 30.23 in 10.0 mi WNW 6.9 mph - N/A   Clear
4:05 PM 67.8 °F 36.3 °F 31% 30.22 in 10.0 mi WSW 4.6 mph - N/A   Clear
4:25 PM 68.2 °F 34.2 °F 28% 30.22 in 10.0 mi WNW 3.5 mph - N/A   Clear
4:45 PM 68.5 °F 34.9 °F 29% 30.22 in 10.0 mi Calm Calm - N/A   Clear
5:05 PM 69.3 °F 35.4 °F 29% 30.22 in 10.0 mi WSW 3.5 mph - N/A   Clear
5:25 PM 69.4 °F 32.5 °F 26% 30.21 in 10.0 mi Calm Calm - N/A   Clear
5:45 PM 69.4 °F 34.0 °F 27% 30.21 in 10.0 mi West 4.6 mph - N/A   Clear
6:05 PM 70.0 °F 34.7 °F 27% 30.20 in 10.0 mi WNW 4.6 mph - N/A   Clear
6:25 PM 68.2 °F 37.0 °F 32% 30.20 in 10.0 mi Calm Calm - N/A   Clear
6:45 PM 67.1 °F 43.3 °F 42% 30.20 in 10.0 mi SE 3.5 mph - N/A   Clear
7:05 PM 65.8 °F 42.8 °F 43% 30.20 in 10.0 mi Calm Calm - N/A   Clear
7:25 PM 64.4 °F 44.2 °F 48% 30.20 in 10.0 mi Calm Calm - N/A   Clear
7:45 PM 63.3 °F 43.9 °F 49% 30.21 in 10.0 mi Calm Calm - N/A   Clear
8:05 PM 62.6 °F 44.8 °F 52% 30.21 in 10.0 mi Calm Calm - N/A   Clear
8:25 PM 62.6 °F 44.6 °F 52% 30.22 in 10.0 mi Calm Calm - N/A   Clear
8:45 PM 61.0 °F 44.6 °F 55% 30.22 in 10.0 mi Calm Calm - N/A   Clear
9:05 PM 60.8 °F 44.6 °F 55% 30.23 in 10.0 mi Calm Calm - N/A   Clear
9:25 PM 59.0 °F 44.8 °F 59% 30.23 in 10.0 mi Calm Calm - N/A   Clear
9:45 PM 58.8 °F 44.6 °F 59% 30.23 in 10.0 mi Calm Calm - N/A   Clear
10:05 PM 58.3 °F 44.8 °F 61% 30.24 in 10.0 mi Calm Calm - N/A   Clear
10:25 PM 58.5 °F 44.8 °F 60% 30.24 in 10.0 mi Calm Calm - N/A   Clear